Farmington, NM

9:30 AM MDT on April 27, 2017 (GMT -0600)
Four Corners Regional

Weather History for KFMN - November, 2013

Change the Weather History Date:

Friday, November 29, 2013

  Actual Average Record
Temperature  
Mean Temperature 32 °F -  
Max Temperature 46 °F 46 °F 63 °F (1999)
Min Temperature 19 °F 22 °F 10 °F (1979)
Degree Days  
Heating Degree Days 32    
Moisture  
Dew Point 25 °F    
Average Humidity 84    
Maximum Humidity 96    
Minimum Humidity 44    
Precipitation  
Precipitation 0.00 in - - ()
Sea Level Pressure  
Sea Level Pressure 30.36 in    
Wind  
Wind Speed 3 mph (WSW)    
Max Wind Speed 9 mph    
Max Gust Speed -    
Visibility 6 miles    
Events Fog    
Averages and records for this station are not official NWS values.
T = Trace of Precipitation, MM = Missing Value Source: NWS Daily Summary

Daily Weather History Graph

Daily Weather History Graph

Search for Another Location

Airport or City:

Trip Planner

Search our weather history database for the weather conditions in past years. The results will help you decide how hot, cold, wet, or windy it might be!

Date:

Astronomy

Nov. 29, 2013 Rise Set
Actual Time 7:05 AM MST 4:57 PM MST
Civil Twilight 6:36 AM MST 5:25 PM MST
Nautical Twilight 6:04 AM MST 5:57 PM MST
Astronomical Twilight 5:33 AM MST 6:28 PM MST
Moon 3:19 AM MST (11/29) 2:39 PM MST (11/29)
Length of Visible Light 10h 48m
Length of Day
9h 52m
Waning Crescent, 13% of the Moon is Illuminated
Nov 29
Waning Crescent
Dec 2
New
Dec 9
First Quarter
Dec 17
Full
Dec 25
Last Quarter

Hourly Weather History & Observations

Time (MST) Temp. Windchill Dew Point Humidity Pressure Visibility Wind Dir Wind Speed Gust Speed Precip Events Conditions
12:53 AM 28.0 °F 21.7 °F 25.0 °F 88% 30.30 in 10.0 mi NE 5.8 mph - N/A   Clear
1:53 AM 28.0 °F 22.8 °F 24.1 °F 85% 30.29 in 10.0 mi ENE 4.6 mph - N/A   Clear
2:53 AM 27.0 °F 23.0 °F 24.1 °F 89% 30.31 in 10.0 mi SSE 3.5 mph - N/A   Clear
3:53 AM 26.1 °F - 24.1 °F 92% 30.32 in 10.0 mi Calm Calm - N/A   Clear
4:53 AM 21.9 °F - 19.9 °F 92% 30.35 in 10.0 mi Calm Calm - N/A   Clear
5:53 AM 21.9 °F - 19.9 °F 92% 30.38 in 5.0 mi Calm Calm - N/A   Clear
6:03 AM 21.9 °F - 19.9 °F 92% 30.32 in 2.5 mi Calm Calm - N/A   Clear
6:11 AM 21.9 °F - 19.9 °F 92% 30.32 in 4.0 mi Calm Calm - N/A   Clear
6:40 AM 21.0 °F 14.6 °F 19.0 °F 92% 30.33 in 2.0 mi SSW 4.6 mph - N/A   Partly Cloudy
6:43 AM 21.0 °F 14.6 °F 19.0 °F 92% 30.33 in 1.0 mi SW 4.6 mph - N/A   Mist
6:46 AM 21.0 °F 16.2 °F 19.0 °F 92% 30.33 in 0.5 mi SW 3.5 mph - N/A Fog Light Freezing Fog
6:53 AM 21.0 °F 16.2 °F 18.0 °F 88% 30.42 in 0.2 mi West 3.5 mph - N/A Fog Light Freezing Fog
7:04 AM 19.9 °F 13.4 °F 18.0 °F 92% 30.34 in 0.5 mi West 4.6 mph - N/A Fog Light Freezing Fog
7:08 AM 19.9 °F 14.9 °F 18.0 °F 92% 30.34 in 1.0 mi West 3.5 mph - N/A   Mist
7:13 AM 19.9 °F - 18.0 °F 92% 30.34 in 2.0 mi Calm Calm - N/A   Partly Cloudy
7:20 AM 21.0 °F - 18.0 °F 88% 30.34 in 6.0 mi Calm Calm - N/A   Partly Cloudy
7:53 AM 24.1 °F - 21.9 °F 91% 30.44 in 10.0 mi Calm Calm - N/A   Clear
8:43 AM 25.0 °F - 24.1 °F 96% 30.36 in 2.5 mi Calm Calm - N/A   Partly Cloudy
8:53 AM 25.0 °F - 24.1 °F 96% 30.45 in 4.0 mi Calm Calm - N/A   Partly Cloudy
9:53 AM 30.0 °F - 27.0 °F 88% 30.45 in 10.0 mi Calm Calm - N/A   Clear
10:53 AM 37.0 °F - 30.0 °F 76% 30.42 in 10.0 mi Calm Calm - N/A   Clear
11:53 AM 41.0 °F 39.0 °F 30.0 °F 65% 30.38 in 10.0 mi WSW 3.5 mph - N/A   Clear
12:53 PM 45.0 °F 42.6 °F 30.0 °F 56% 30.34 in 10.0 mi WNW 4.6 mph - N/A   Clear
1:53 PM 45.0 °F 41.8 °F 30.0 °F 56% 30.32 in 10.0 mi West 5.8 mph - N/A   Clear
2:53 PM 45.0 °F 41.2 °F 32.0 °F 60% 30.31 in 10.0 mi West 6.9 mph - N/A   Clear
3:53 PM 43.0 °F 37.7 °F 32.0 °F 65% 30.32 in 10.0 mi West 9.2 mph - N/A   Clear
4:53 PM 39.0 °F 32.8 °F 30.9 °F 73% 30.35 in 10.0 mi WSW 9.2 mph - N/A   Clear
5:53 PM 35.1 °F 29.3 °F 30.0 °F 82% 30.38 in 10.0 mi WSW 6.9 mph - N/A   Clear
6:53 PM 33.1 °F 26.9 °F 28.9 °F 85% 30.40 in 10.0 mi WSW 6.9 mph - N/A   Clear
7:53 PM 32.0 °F 26.4 °F 28.9 °F 88% 30.40 in 10.0 mi West 5.8 mph - N/A   Clear
8:53 PM 30.0 °F 24.1 °F 28.0 °F 92% 30.41 in 9.0 mi WSW 5.8 mph - N/A   Clear
9:53 PM 28.9 °F 22.8 °F 27.0 °F 92% 30.41 in 5.0 mi WSW 5.8 mph - N/A   Clear
10:53 PM 28.9 °F 23.9 °F 27.0 °F 92% 30.40 in 4.0 mi WSW 4.6 mph - N/A   Partly Cloudy
11:05 PM 30.0 °F 25.2 °F 28.0 °F 92% 30.34 in 2.5 mi WSW 4.6 mph - N/A   Mostly Cloudy
11:16 PM 30.0 °F 26.5 °F 28.9 °F 96% 30.34 in 0.8 mi WSW 3.5 mph - N/A   Mist
11:25 PM 30.0 °F 26.5 °F 28.9 °F 96% 30.34 in 0.5 mi SW 3.5 mph - N/A Fog Light Freezing Fog
11:33 PM 30.0 °F 24.1 °F 28.9 °F 96% 30.34 in 0.2 mi WSW 5.8 mph - N/A Fog Light Freezing Fog
11:53 PM 30.0 °F 26.5 °F 28.9 °F 96% 30.39 in 0.2 mi WSW 3.5 mph - N/A Fog Light Freezing Fog